JBU1480 KFLL-KDCA

Flight info

Callsign JBU1480
Flight time N/A
Altitude 35000
Route AGERS1 DUCEN Q87 RAYVO Q113 AARNN WAVES CAPSS4
Aircraft A21N/M-SDE2E3FGHIJ1RWXY/LB1

Departure

Time 2026-05-04 13:02
Airport Fort Lauderdale Hollywood International Airport (KFLL)

Arrival

Time N/A
Airport Ronald Reagan Washington National Airport (KDCA)
Time Latitude Longitude Altitude Speed Heading
2026-05-04 12:36 26.06876 -80.14297 21 ft 0 kts
2026-05-04 12:53 26.06861 -80.14297 22 ft 3 kts
2026-05-04 12:53 26.06842 -80.14297 24 ft 3 kts 343°
2026-05-04 12:54 26.06826 -80.14287 21 ft 3 kts 308°
2026-05-04 12:54 26.06818 -80.14269 21 ft 3 kts 275°
2026-05-04 12:54 26.06818 -80.14257 21 ft 1 kts 268°
2026-05-04 12:54 26.06818 -80.14256 21 ft 0 kts 268°
2026-05-04 12:56 26.06818 -80.14266 21 ft 4 kts 269°
2026-05-04 12:56 26.06817 -80.14329 21 ft 11 kts 269°
2026-05-04 12:56 26.06816 -80.14426 21 ft 13 kts 269°
2026-05-04 12:56 26.06815 -80.14536 21 ft 15 kts 269°
2026-05-04 12:57 26.06778 -80.14613 23 ft 11 kts 236°
2026-05-04 12:57 26.06766 -80.14705 21 ft 13 kts 274°
2026-05-04 12:57 26.06771 -80.14818 21 ft 16 kts 272°
2026-05-04 12:57 26.06736 -80.14928 22 ft 10 kts 198°
2026-05-04 12:58 26.06687 -80.14902 24 ft 11 kts 111°
2026-05-04 12:58 26.06677 -80.14795 28 ft 17 kts 88°
2026-05-04 12:58 26.06677 -80.14648 40 ft 21 kts 91°
2026-05-04 12:58 26.06676 -80.14474 50 ft 24 kts 90°
2026-05-04 12:59 26.06677 -80.14282 54 ft 26 kts 90°
2026-05-04 12:59 26.06687 -80.14124 61 ft 18 kts 68°
2026-05-04 12:59 26.06742 -80.13991 80 ft 15 kts 70°
2026-05-04 12:59 26.06745 -80.13871 80 ft 17 kts 92°
2026-05-04 13:00 26.06743 -80.13735 84 ft 18 kts 90°
2026-05-04 13:00 26.06742 -80.13587 80 ft 20 kts 90°
2026-05-04 13:00 26.06739 -80.13444 80 ft 13 kts 103°
2026-05-04 13:00 26.06652 -80.13405 81 ft 15 kts 179°
2026-05-04 13:01 26.06578 -80.13431 81 ft 5 kts 258°
2026-05-04 13:01 26.06578 -80.13438 84 ft 0 kts 266°
2026-05-04 13:02 26.06575 -80.13490 82 ft 32 kts 268°
2026-05-04 13:02 26.06580 -80.14040 79 ft 109 kts 271°
2026-05-04 13:02 26.06558 -80.15532 303 ft 157 kts 271°
2026-05-04 13:02 26.06571 -80.16701 1014 ft 152 kts 279°
2026-05-04 13:03 26.06640 -80.17504 1369 ft 157 kts 278°
2026-05-04 13:03 26.06754 -80.18764 1837 ft 172 kts 288°
2026-05-04 13:03 26.07223 -80.20070 2238 ft 192 kts 297°
2026-05-04 13:03 26.07803 -80.21536 2602 ft 223 kts 296°
2026-05-04 13:04 26.08620 -80.23104 3065 ft 246 kts 311°
2026-05-04 13:04 26.09847 -80.24499 3795 ft 257 kts 317°
2026-05-04 13:04 26.11157 -80.25882 4710 ft 262 kts 315°
2026-05-04 13:04 26.12493 -80.27217 5651 ft 263 kts 322°
2026-05-04 13:05 26.14180 -80.28086 6553 ft 270 kts 346°
2026-05-04 13:05 26.16055 -80.28080 7348 ft 279 kts
2026-05-04 13:05 26.17970 -80.27614 8188 ft 284 kts 10°
2026-05-04 13:05 26.19903 -80.27101 9014 ft 288 kts
2026-05-04 13:06 26.21872 -80.26599 9830 ft 292 kts
2026-05-04 13:06 26.23894 -80.26103 10354 ft 306 kts
2026-05-04 13:06 26.26049 -80.25582 10669 ft 327 kts
2026-05-04 13:06 26.28343 -80.25033 10946 ft 348 kts
2026-05-04 13:07 26.30780 -80.24452 11221 ft 368 kts
2026-05-04 13:07 26.33336 -80.23841 11596 ft 382 kts
2026-05-04 13:07 26.35958 -80.23215 12255 ft 388 kts
2026-05-04 13:07 26.38623 -80.22901 12955 ft 384 kts 353°
2026-05-04 13:08 26.41288 -80.23109 13676 ft 385 kts 348°
2026-05-04 13:08 26.43965 -80.23400 14312 ft 389 kts 348°
2026-05-04 13:08 26.46676 -80.23697 14903 ft 394 kts 348°
2026-05-04 13:08 26.49419 -80.23990 15484 ft 398 kts 348°
2026-05-04 13:09 26.52191 -80.24280 16093 ft 403 kts 348°
2026-05-04 13:09 26.54998 -80.24571 16681 ft 407 kts 348°
2026-05-04 13:09 26.57822 -80.24958 17254 ft 409 kts 345°
2026-05-04 13:09 26.60652 -80.25425 17818 ft 413 kts 345°
2026-05-04 13:10 26.63513 -80.25905 18357 ft 418 kts 345°
2026-05-04 13:10 26.66400 -80.26389 18869 ft 421 kts 344°
2026-05-04 13:10 26.69299 -80.26882 19390 ft 422 kts 343°
2026-05-04 13:10 26.72115 -80.27680 19922 ft 415 kts 334°
2026-05-04 13:11 26.74831 -80.28790 20454 ft 416 kts 332°
2026-05-04 13:11 26.77536 -80.29949 20972 ft 417 kts 332°
2026-05-04 13:11 26.80257 -80.31111 21499 ft 420 kts 332°
2026-05-04 13:11 26.83000 -80.32272 22027 ft 422 kts 333°
2026-05-04 13:12 26.85752 -80.33429 22572 ft 424 kts 333°
2026-05-04 13:12 26.88525 -80.34582 23100 ft 427 kts 333°
2026-05-04 13:12 26.91324 -80.35749 23614 ft 429 kts 333°
2026-05-04 13:12 26.94130 -80.36923 24041 ft 432 kts 333°
2026-05-04 13:13 26.96954 -80.38080 24485 ft 434 kts 333°
2026-05-04 13:13 26.99809 -80.39222 24920 ft 436 kts 333°
2026-05-04 13:13 27.02668 -80.40365 25349 ft 437 kts 333°
2026-05-04 13:13 27.05539 -80.41518 25778 ft 439 kts 333°
2026-05-04 13:14 27.08419 -80.42682 26201 ft 440 kts 333°
2026-05-04 13:14 27.11276 -80.43915 26600 ft 441 kts 332°
2026-05-04 13:14 27.14135 -80.45176 27009 ft 442 kts 332°
2026-05-04 13:14 27.16991 -80.46435 27538 ft 440 kts 332°
2026-05-04 13:15 27.19794 -80.47671 28085 ft 437 kts 332°
2026-05-04 13:15 27.22612 -80.48915 28667 ft 434 kts 331°
2026-05-04 13:15 27.25454 -80.50170 29219 ft 431 kts 331°
2026-05-04 13:15 27.28198 -80.51385 29759 ft 429 kts 331°
2026-05-04 13:16 27.30959 -80.52607 30272 ft 426 kts 331°
2026-05-04 13:16 27.33713 -80.53827 30661 ft 424 kts 331°
2026-05-04 13:16 27.36458 -80.55031 31030 ft 424 kts 332°
2026-05-04 13:16 27.39241 -80.56155 31372 ft 424 kts 333°
2026-05-04 13:17 27.42023 -80.57264 31719 ft 424 kts 333°
2026-05-04 13:17 27.44801 -80.58367 32058 ft 423 kts 333°
2026-05-04 13:17 27.47577 -80.59466 32378 ft 422 kts 333°
2026-05-04 13:17 27.50342 -80.60562 32712 ft 421 kts 333°
2026-05-04 13:18 27.53110 -80.61661 33056 ft 421 kts 333°
2026-05-04 13:18 27.55859 -80.62757 33382 ft 420 kts 333°
2026-05-04 13:18 27.58614 -80.63853 33684 ft 419 kts 333°
2026-05-04 13:18 27.61363 -80.64949 33967 ft 418 kts 333°
2026-05-04 13:19 27.64101 -80.66039 34226 ft 417 kts 332°
2026-05-04 13:19 27.66840 -80.67132 34450 ft 417 kts 332°
2026-05-04 13:19 27.69577 -80.68223 34659 ft 417 kts 332°
2026-05-04 13:19 27.72317 -80.69319 34872 ft 417 kts 332°
2026-05-04 13:20 27.75050 -80.70413 35058 ft 418 kts 332°
2026-05-04 13:20 27.80489 -80.72589 35097 ft 417 kts 332°
2026-05-04 13:21 27.85947 -80.74773 35088 ft 416 kts 332°
2026-05-04 13:21 27.91396 -80.76959 35094 ft 415 kts 332°
2026-05-04 13:22 27.96845 -80.79142 35097 ft 415 kts 332°
2026-05-04 13:22 28.02281 -80.81327 35092 ft 414 kts 332°
2026-05-04 13:23 28.07714 -80.83511 35093 ft 414 kts 332°
2026-05-04 13:23 28.13143 -80.85697 35095 ft 414 kts 332°
2026-05-04 13:24 28.18555 -80.87878 35094 ft 413 kts 332°
2026-05-04 13:24 28.23971 -80.90063 35077 ft 413 kts 332°
2026-05-04 13:25 28.32061 -80.93362 35101 ft 412 kts 332°
2026-05-04 13:25 28.37459 -80.95546 35106 ft 411 kts 332°
2026-05-04 13:26 28.42859 -80.97707 35109 ft 411 kts 332°
2026-05-04 13:26 28.48237 -80.99878 35110 ft 410 kts 332°